Showing default

STARS-AO, 43679

Orbit data source: Space-Track

STARS-AO, 43679 is a payload satellite owned by Shizuoka U (JP) in SSO that was launched on Mon, 29 Oct 2018 UTC via an H-IIA 202 launch vehicle from the Tanegashima Space Center (TNSTA). Payload-class satellites include a variety of spacecraft equipped with specific instruments for various scientific and technological missions. These include communications satellites like Starlink; space stations such as the ISS; scientific satellites like the Hubble; Earth observation satellites from companies like Planet Labs, Umbra, and HawkEye 360; GPS; miniature CubeSats for education and research; and military/defense satellites.

Loading next visibility...
Identifier
43679, 2018-084J
Orbit
SSO
Country
Flag of JPJP / JPN
Related business
Manufacturer
Shizuoka U
Mission
Operational Amateur Astronomy
Bus & Motor
CUBESAT 1U, Unknown motor
Mass
1.4 kg wet, 1.4 kg dry
Launch date (UTC)
2018-10-29 (7 years ago)
Launch vehicle
H-IIA 202
Launch site
Tanegashima Space Center (TNSTA)
Object type
Payload
Rocket body
Debris
Shape & HBR
Box, 0.1 m
Radar Cross Section
0.015 m², Small (<0.1 m²)

Expand to show TLE details & history
Last TLE update: 12 hours ago

TLE from 12 hours ago
0 STARS-AO
1 43679U 18084J   26066.52347075  .00011212  00000-0  59082-3 0  9997
2 43679  98.0615 274.2456 0002814 132.4584 227.6885 15.15775535402066
Epoch: 2026-03-07T12:33Z
TLE epoch observation values (Epoch: 2026-03-07T12:33:47.872Z)
Latitude
-0.00006°
Longitude
-79.44775°
Altitude
522.997 km
Speed
7.601 km/s
True Right ascension
18h 16m 58s
True Declination
0° 00' 00"
Sunlit
Object was in daylight at epoch
Visualization orbit readout
Latitude
Unknown
Longitude
Unknown
Altitude
Unknown
Speed
Unknown
Apparent Right ascension
Unknown
Apparent Declination
Unknown
Sunlit
N/A
Visualization observer readout
Local Sidereal Time
04:32:59
Azimuth
Unknown
Elevation
Unknown
Doppler factor
Unknown
Orbital elements
Apogee altitude
517.566 km
Perigee altitude
513.686 km
Semi-major axis
6,893.763 km
Eccentricity
0.00028
Inclination
98.0615°
RAAN
274.2456°
Arg. of periapsis
132.4584°
True anomaly
227.66466°
Mean anomaly
227.6885°
Eccentric anomaly
227.67658°
Mean motion
3.79192 °/min
Orbital period
94.94 mins
BSTAR
0.00059082
Loading maneuver chart data...
Computing Atmospheric mass density...
Loading historical data...
Loading historical data...
Loading historical data...
Loading historical data...
Loading historical data...
Loading historical data...
Loading historical data...

Documentation

Showing up to 5 results
|